Weather History for Kahului, HI

Change the Weather History Date:

Tuesday, December 4, 2012

  Actual Average Record
Temperature  
Mean Temperature 75 °F 74 °F  
Max Temperature 84 °F 82 °F 89 °F (1955)
Min Temperature 66 °F 66 °F 58 °F (1958)
Degree Days  
Heating Degree Days 0 0  
Month to date heating degree days 0 0  
Since 1 July heating degree days 0 0  
Cooling Degree Days 10 9  
Month to date cooling degree days 41 38  
Year to date cooling degree days 3684 3745  
Growing Degree Days 25 (Base 50)    
Moisture  
Dew Point 70 °F    
Average Humidity 79    
Maximum Humidity 93    
Minimum Humidity 65    
Precipitation  
Precipitation T in 0.10 in 2.34 in (1978)
Month to date precipitation T 0.41  
Year to date precipitation 4.94 14.89  
Snow  
Snow 0.00 in - - ()
Month to date snowfall 0.0  
Since 1 July snowfall 0.0  
Snow Depth 0.00 in    
Sea Level Pressure  
Sea Level Pressure 30.01 in    
Wind  
Wind Speed 5 mph (ENE)    
Max Wind Speed 14 mph    
Max Gust Speed 18 mph    
Visibility 10 miles    
Events      
T = Trace of Precipitation, MM = Missing Value Source: NWS Daily Summary

Daily Weather History Graph

Daily Weather History Graph

Search for Another Location

Airport:

Trip Planner

Search our weather history database for the weather conditions in past years. The results will help you decide how hot, cold, wet, or windy it might be!

Date:

Astronomy

Dec. 04, 2012 Rise Set
Actual Time 6:48 AM HST 5:44 PM HST
Civil Twilight 6:24 AM HST 6:08 PM HST
Nautical Twilight 5:56 AM HST 6:35 PM HST
Astronomical Twilight 5:29 AM HST 7:02 PM HST
Moon 11:12 PM HST (12/4) 11:14 AM HST (12/4)
Length of Visible Light 11h 43m
Length of Day
10h 55m
Waning Gibbous, 67% of the Moon is Illuminated
Dec 4
Waning Gibbous
Dec 6
Last Quarter
Dec 12
New
Dec 19
First Quarter
Dec 28
Full

Hourly Weather History & Observations

Time (HST) Temp. Heat Index Dew Point Humidity Pressure Visibility Wind Dir Wind Speed Gust Speed Precip Events Conditions
12:48 AM 73.4 °F - 69.8 °F 88% 30.00 in 10.0 mi Calm Calm - N/A   Mostly Cloudy
12:54 AM 73.0 °F - 70.0 °F 90% 30.02 in 10.0 mi Calm Calm - N/A   Mostly Cloudy
1:17 AM 73.4 °F - 69.8 °F 88% 30.00 in 10.0 mi South 4.6 mph - N/A   Overcast
1:54 AM 73.9 °F - 71.1 °F 91% 30.01 in 10.0 mi Calm Calm - N/A   Overcast
2:29 AM 73.4 °F - 69.8 °F 88% 29.98 in 10.0 mi Calm Calm - N/A   Mostly Cloudy
2:36 AM 73.4 °F - 69.8 °F 88% 29.98 in 10.0 mi Calm Calm - N/A   Mostly Cloudy
2:52 AM 71.6 °F - 69.8 °F 94% 29.98 in 10.0 mi Calm Calm - N/A   Partly Cloudy
2:54 AM 72.0 °F - 69.1 °F 91% 30.00 in 10.0 mi South 3.5 mph - N/A   Partly Cloudy
3:54 AM 69.1 °F - 66.9 °F 93% 29.99 in 10.0 mi SE 3.5 mph - N/A   Clear
4:54 AM 69.1 °F - 66.0 °F 90% 30.00 in 10.0 mi SE 3.5 mph - N/A   Clear
5:54 AM 68.0 °F - 64.9 °F 90% 30.01 in 10.0 mi South 4.6 mph - N/A   Clear
6:54 AM 66.0 °F - 64.0 °F 93% 30.03 in 10.0 mi Calm Calm - N/A   Clear
7:54 AM 72.0 °F - 68.0 °F 87% 30.04 in 10.0 mi SSE 4.6 mph - 0.00 in   Partly Cloudy
8:54 AM 79.0 °F - 69.1 °F 72% 30.06 in 10.0 mi Calm Calm - N/A   Clear
9:54 AM 80.1 °F 82.9 °F 69.1 °F 69% 30.06 in 10.0 mi North 4.6 mph - 0.00 in   Clear
10:54 AM 82.9 °F 86.5 °F 69.1 °F 63% 30.04 in 10.0 mi NNE 6.9 mph - N/A   Scattered Clouds
11:54 AM 82.0 °F 86.3 °F 71.1 °F 69% 30.02 in 10.0 mi North 9.2 mph - N/A   Scattered Clouds
12:54 PM 82.0 °F 86.7 °F 72.0 °F 71% 30.00 in 10.0 mi North 11.5 mph - N/A   Clear
1:54 PM 81.0 °F 85.2 °F 72.0 °F 74% 29.99 in 10.0 mi North 11.5 mph - N/A   Scattered Clouds
2:54 PM 82.9 °F 87.5 °F 71.1 °F 67% 29.99 in 10.0 mi NNE 12.7 mph - N/A   Scattered Clouds
3:54 PM 82.0 °F 86.3 °F 71.1 °F 69% 29.99 in 10.0 mi NNE 8.1 mph - N/A   Scattered Clouds
4:54 PM 80.1 °F 83.2 °F 70.0 °F 71% 30.00 in 10.0 mi North 4.6 mph - N/A   Partly Cloudy
5:54 PM 79.0 °F - 70.0 °F 74% 30.01 in 10.0 mi NNE 4.6 mph - N/A   Scattered Clouds
6:54 PM 78.1 °F - 69.1 °F 74% 30.01 in 10.0 mi Calm Calm - N/A   Scattered Clouds
7:54 PM 75.9 °F - 71.1 °F 85% 30.03 in 10.0 mi ENE 5.8 mph - N/A   Partly Cloudy
8:54 PM 75.0 °F - 70.0 °F 84% 30.03 in 10.0 mi SE 5.8 mph - N/A   Mostly Cloudy
9:54 PM 75.0 °F - 70.0 °F 84% 30.03 in 10.0 mi Calm Calm - N/A   Mostly Cloudy
10:54 PM 73.9 °F - 70.0 °F 87% 30.06 in 10.0 mi South 5.8 mph - N/A   Scattered Clouds
11:54 PM 75.9 °F - 70.0 °F 82% 30.04 in 10.0 mi Calm Calm - 0.00 in   Scattered Clouds